Total_Precipitation_Accumulation
0.15 0.21 0.25 0.26 0.24 0.22 0.17 0.16 0.24 0.37 0.53 0.71 0.89 1.16 1.11 1.14 1.17 1.21 1.13 1.09 1.04 1.10 1.21 1.37 1.42 1.42 1.47 1.52 1.57 1.74 1.74 1.71 1.82 2.02 2.11 2.19 2.19 2.21 2.27 2.26 2.14 2.30 2.30 2.38
0.19 0.18 0.18 0.20 0.21 0.18 0.14 0.13 0.15 0.31 0.57 0.77 0.88 1.00 1.05 0.96 1.02 1.22 1.17 1.10 1.11 1.21 1.36 1.38 1.32 1.33 1.32 1.28 1.36 1.58 1.72 1.81 1.91 1.99 1.98 2.07 2.10 2.10 2.13 2.18 2.25 2.30 2.30 2.40
0.24 0.19 0.22 0.29 0.25 0.21 0.19 0.18 0.21 0.36 0.59 0.80 0.96 0.90 0.98 0.99 1.00 0.98 0.99 1.01 1.14 1.27 1.30 1.32 1.37 1.37 1.28 1.16 1.25 1.58 1.71 1.77 2.00 2.12 2.03 2.11 2.14 2.17 2.18 2.22 2.37 2.44 2.52 2.56
0.32 0.36 0.43 0.35 0.30 0.29 0.33 0.37 0.34 0.39 0.58 0.82 1.02 1.00 0.97 0.98 0.99 0.92 0.80 0.92 1.07 1.16 1.22 1.26 1.29 1.29 1.25 1.24 1.29 1.57 1.83 1.97 2.28 2.44 2.28 2.28 2.31 2.34 2.41 2.54 2.59 2.65 2.67 2.57
0.51 0.55 0.57 0.50 0.48 0.51 0.61 0.79 0.63 0.64 0.85 0.89 0.88 0.95 1.06 1.01 0.97 0.90 0.92 1.02 1.04 1.14 1.28 1.39 1.54 1.56 1.52 1.57 1.67 1.85 2.06 2.22 2.50 2.75 2.85 2.79 2.62 2.68 2.77 2.78 2.74 2.80 2.85 2.83
0.68 0.79 0.91 0.83 0.70 0.66 0.79 1.28 1.05 0.90 0.96 0.98 0.97 1.24 1.27 0.98 0.87 0.84 0.96 1.10 1.21 1.39 1.41 1.46 1.66 1.68 1.74 1.87 2.10 2.21 2.21 2.25 2.48 2.77 2.89 2.88 2.85 3.02 3.12 2.99 2.88 2.90 2.77 2.65
0.80 0.92 0.96 0.85 0.72 0.79 1.40 1.83 1.34 1.18 1.20 1.25 1.27 1.26 1.17 1.04 1.03 0.95 0.98 1.11 1.12 1.13 1.28 1.42 1.56 1.73 1.95 2.05 2.19 2.29 2.37 2.37 2.49 2.75 3.07 3.03 3.10 3.18 3.23 3.20 3.22 3.19 3.06 2.93
0.95 1.21 1.37 0.91 0.83 1.26 1.68 1.50 1.53 1.54 1.53 1.44 1.28 1.14 1.08 1.07 1.11 1.03 1.04 1.12 1.16 1.10 1.19 1.41 1.62 1.89 2.06 2.14 2.26 2.44 2.50 2.49 2.57 2.85 2.97 3.01 3.16 3.22 3.33 3.46 3.45 3.38 3.32 3.04
1.27 1.52 1.38 1.10 1.20 1.31 1.39 1.51 1.55 1.48 1.52 1.48 1.39 1.27 1.22 1.22 1.21 1.18 1.21 1.21 1.33 1.38 1.36 1.52 1.72 1.96 2.22 2.29 2.32 2.28 2.29 2.32 2.44 2.61 2.75 2.91 3.03 2.98 3.07 3.21 3.16 3.12 3.05 2.87
1.73 1.69 1.49 1.34 1.29 1.30 1.29 1.36 1.33 1.25 1.22 1.19 1.22 1.22 1.21 1.23 1.33 1.40 1.51 1.49 1.49 1.59 1.62 1.68 1.80 1.99 2.16 2.20 2.22 2.20 2.14 2.14 2.28 2.51 2.67 2.77 2.85 2.80 2.85 2.86 2.89 2.92 2.90 2.79
2.25 2.20 1.95 1.77 1.60 1.52 1.40 1.40 1.34 1.23 1.20 1.14 1.07 1.10 1.13 1.14 1.28 1.42 1.52 1.54 1.52 1.65 1.77 1.78 1.84 2.03 2.18 2.23 2.29 2.34 2.29 2.28 2.42 2.52 2.58 2.73 2.80 2.82 2.84 2.79 2.78 2.79 2.73 2.64
2.63 2.38 2.25 2.21 1.83 1.72 1.66 1.53 1.38 1.38 1.36 1.24 1.11 1.10 1.17 1.19 1.25 1.32 1.44 1.58 1.64 1.74 1.80 1.80 1.85 2.00 2.11 2.29 2.48 2.55 2.49 2.47 2.44 2.39 2.46 2.44 2.46 2.44 2.44 2.40 2.40 2.37 2.33 2.23
2.05 2.10 2.12 2.27 2.09 1.78 1.61 1.51 1.43 1.46 1.47 1.34 1.23 1.18 1.11 1.15 1.25 1.37 1.53 1.71 1.87 1.97 1.91 1.86 1.93 2.05 2.12 2.25 2.51 2.66 2.60 2.48 2.36 2.26 2.24 2.25 2.30 2.34 2.37 2.29 2.23 2.15 2.07 1.92
1.90 2.23 2.40 2.33 2.38 2.19 1.89 1.68 1.54 1.48 1.45 1.32 1.28 1.27 1.27 1.33 1.37 1.50 1.73 1.88 1.88 1.93 1.93 1.87 1.87 2.01 2.07 2.20 2.48 2.68 2.62 2.50 2.29 2.16 2.13 2.11 2.24 2.32 2.29 2.26 2.20 1.99 1.86 1.80
2.06 2.18 2.28 2.15 2.15 2.25 2.23 2.09 1.90 1.74 1.60 1.50 1.51 1.53 1.46 1.44 1.46 1.54 1.65 1.82 1.95 1.96 1.86 1.78 1.79 1.85 1.91 2.05 2.25 2.43 2.50 2.42 2.30 2.25 2.24 2.15 2.11 2.17 2.16 2.13 2.16 2.06 1.87 1.83
1.95 1.89 1.96 2.10 2.20 2.18 2.17 2.17 2.11 1.99 1.78 1.66 1.65 1.61 1.50 1.49 1.51 1.54 1.59 1.72 2.02 2.20 2.05 1.85 1.77 1.77 1.85 2.00 2.09 2.09 2.16 2.20 2.18 2.23 2.22 2.16 2.16 2.18 2.23 2.28 2.29 2.18 2.01 1.90
1.80 1.73 1.74 1.87 2.01 2.13 2.14 2.00 1.94 1.91 1.85 1.73 1.66 1.61 1.57 1.55 1.61 1.75 1.83 1.88 1.94 1.97 1.99 1.98 1.89 1.82 1.88 2.00 2.13 2.05 1.91 1.86 1.85 1.82 1.86 1.98 2.05 2.15 2.27 2.33 2.36 2.25 2.02 1.86
1.52 1.53 1.62 1.69 1.76 1.94 2.00 1.84 1.73 1.70 1.71 1.66 1.61 1.57 1.56 1.64 1.87 2.11 2.15 2.06 2.06 1.96 1.81 1.80 1.83 1.83 1.91 1.97 2.08 2.09 1.97 1.79 1.63 1.59 1.64 1.80 2.02 2.16 2.24 2.19 2.14 2.09 1.99 1.92
1.33 1.36 1.43 1.46 1.50 1.62 1.75 1.82 1.80 1.72 1.64 1.62 1.69 1.74 1.75 1.78 1.98 2.22 2.28 2.27 2.24 2.11 1.85 1.70 1.72 1.69 1.79 1.89 2.00 1.97 1.78 1.59 1.42 1.41 1.50 1.68 1.92 2.24 2.25 2.03 1.90 1.86 1.92 1.93
1.32 1.33 1.37 1.31 1.28 1.34 1.50 1.65 1.68 1.69 1.69 1.69 1.74 1.78 1.85 1.92 2.11 2.31 2.39 2.43 2.32 2.10 1.82 1.61 1.49 1.47 1.51 1.71 1.84 1.76 1.62 1.48 1.37 1.36 1.43 1.58 1.85 2.16 2.09 1.93 1.82 1.82 1.87 1.90
1.33 1.32 1.38 1.39 1.35 1.28 1.34 1.45 1.53 1.65 1.74 1.75 1.86 1.97 2.00 1.98 2.11 2.36 2.55 2.52 2.19 1.84 1.64 1.59 1.40 1.30 1.33 1.55 1.66 1.56 1.51 1.48 1.43 1.46 1.53 1.69 1.97 2.16 2.07 1.95 1.89 1.87 1.87 1.94
1.34 1.29 1.31 1.43 1.49 1.44 1.42 1.48 1.51 1.57 1.67 1.70 1.80 1.94 1.96 2.05 2.03 2.00 2.11 2.29 2.11 1.87 1.51 1.34 1.30 1.34 1.42 1.54 1.54 1.49 1.51 1.52 1.52 1.57 1.64 1.78 1.94 2.00 1.98 1.93 1.96 1.93 1.91 1.94
1.38 1.34 1.34 1.47 1.61 1.62 1.50 1.51 1.55 1.61 1.71 1.68 1.71 1.80 1.93 2.06 2.03 2.04 1.94 1.79 1.73 1.69 1.44 1.31 1.34 1.40 1.44 1.44 1.53 1.56 1.60 1.59 1.53 1.55 1.63 1.73 1.81 1.86 1.90 1.92 1.90 1.84 1.89 1.85
1.32 1.36 1.41 1.42 1.49 1.62 1.71 1.69 1.70 1.72 1.72 1.60 1.52 1.51 1.63 1.77 1.76 1.69 1.73 1.78 1.70 1.64 1.45 1.40 1.38 1.36 1.39 1.35 1.43 1.55 1.63 1.56 1.49 1.47 1.56 1.63 1.66 1.70 1.83 1.94 1.88 1.80 1.76 1.72
1.47 1.49 1.52 1.53 1.61 1.72 1.77 1.74 1.80 1.83 1.80 1.63 1.49 1.40 1.39 1.58 1.68 1.58 1.60 1.64 1.62 1.55 1.42 1.42 1.43 1.48 1.45 1.47 1.49 1.49 1.46 1.38 1.38 1.42 1.49 1.59 1.64 1.66 1.72 1.74 1.67 1.69 1.69 1.64
1.62 1.56 1.52 1.54 1.58 1.62 1.62 1.73 1.85 1.83 1.86 1.83 1.66 1.44 1.37 1.43 1.48 1.55 1.62 1.60 1.62 1.67 1.48 1.39 1.38 1.42 1.44 1.54 1.56 1.45 1.34 1.33 1.36 1.37 1.44 1.56 1.56 1.61 1.67 1.65 1.58 1.62 1.61 1.57
1.56 1.50 1.48 1.50 1.48 1.43 1.43 1.54 1.72 1.86 2.01 2.02 1.79 1.49 1.39 1.42 1.49 1.55 1.56 1.57 1.64 1.68 1.61 1.48 1.39 1.36 1.37 1.44 1.46 1.39 1.33 1.28 1.30 1.34 1.40 1.42 1.46 1.54 1.60 1.63 1.56 1.53 1.56 1.53